Date String (YYYY-MM-DD hh:mm:ss) UTC,Instrument flags,Ambient pressure (hPa),Sample flow (lpm),Bypass flow (lpm),Sample temperature (°C),Ambient temperature (°C),ASC tube jacket temperature (°C),LED temperature (°C),Box temperature (°C),Sample RH (%),Span deviation,Mass concentration (μg/m³),Mass concentration (μg/m³),Mass concentration (μg/m³)
DateTimeUTC,F1_M11,P_M11,Q1_M11,Q2_M11,T1_M11,T2_M11,T3_M11,T4_M11,T5_M11,U1_M11,ZSPAN_M11,X0_M11,X2_M11,X1_M11
2021-12-21 12:00:00,,0823.6,5.00,0.00,22.1,21.7,00.0,31.0,23.8,07.2,0000.0,0008.21,0002.84,0001.86
2021-12-21 12:01:00,,0823.7,4.99,0.00,22.1,21.6,00.0,31.0,23.7,07.2,0000.0,0008.35,0002.92,0001.95
2021-12-21 12:02:00,,0823.7,5.02,0.00,22.0,21.5,00.0,31.0,23.7,07.2,0000.0,0008.20,0002.97,0001.98
2021-12-21 12:03:00,,0823.6,5.00,0.00,22.0,21.4,00.0,31.0,23.7,07.3,0000.0,0008.25,0002.96,0001.98
2021-12-21 12:04:00,,0823.5,4.99,0.00,22.0,21.4,00.0,31.0,23.7,06.8,0000.0,0008.28,0002.93,0001.92
2021-12-21 12:05:00,,0823.7,5.00,0.00,22.0,21.4,00.0,31.0,23.7,06.7,0000.0,0008.00,0002.72,0001.80
2021-12-21 12:06:00,,0823.7,4.98,0.00,22.0,21.4,00.0,31.0,23.7,07.0,0000.0,0007.75,0002.58,0001.74
2021-12-21 12:07:00,,0823.7,5.01,0.00,22.0,21.3,00.0,31.0,23.6,06.8,0000.0,0007.54,0002.42,0001.65
2021-12-21 12:08:00,,0823.6,5.00,0.00,22.0,21.3,00.0,31.0,23.6,06.8,0000.0,0007.54,0002.31,0001.54
2021-12-21 12:09:00,,0823.6,4.99,0.00,21.9,21.3,00.0,31.0,23.6,06.6,0000.0,0007.35,0002.20,0001.47
2021-12-21 12:10:00,,0823.7,4.99,0.00,21.9,21.3,00.0,31.0,23.6,06.7,0000.0,0007.21,0002.11,0001.43
2021-12-21 12:11:00,,0823.5,5.01,0.00,21.9,21.2,00.0,31.0,23.6,06.6,0000.0,0005.82,0002.02,0001.34
2021-12-21 12:12:00,,0823.4,5.00,0.00,21.9,21.2,00.0,31.0,23.5,06.6,0000.0,0005.46,0001.95,0001.23
2021-12-21 12:13:00,,0823.4,4.99,0.00,21.9,21.2,00.0,31.0,23.5,06.6,0000.0,0005.04,0001.79,0001.13
2021-12-21 12:14:00,,0823.5,4.99,0.00,21.9,21.2,00.0,31.0,23.6,06.5,0000.0,0004.97,0001.68,0001.03
2021-12-21 12:15:00,,0823.3,5.00,0.00,21.9,21.2,00.0,31.0,23.6,06.7,0000.0,0005.72,0001.63,0000.98
2021-12-21 12:16:00,,0823.3,4.99,0.00,21.9,21.2,00.0,30.9,23.5,06.6,0000.0,0005.79,0001.63,0000.99
2021-12-21 12:17:00,,0823.4,5.03,0.00,21.9,21.1,00.0,30.9,23.5,06.5,0000.0,0005.57,0001.52,0000.92
2021-12-21 12:18:00,,0823.4,4.98,0.00,21.9,21.1,00.0,30.9,23.5,06.5,0000.0,0005.47,0001.45,0000.88
2021-12-21 12:19:00,,0823.5,5.00,0.00,21.9,21.1,00.0,30.9,23.5,06.5,0000.0,0005.29,0001.41,0000.86
2021-12-21 12:20:00,,0823.4,5.01,0.00,21.9,21.1,00.0,30.9,23.5,06.4,0000.0,0005.20,0001.38,0000.85
2021-12-21 12:21:00,,0823.4,4.99,0.00,21.9,21.2,00.0,30.9,23.6,06.5,0000.0,0004.42,0001.38,0000.83
2021-12-21 12:22:00,,0823.4,5.01,0.00,21.9,21.2,00.0,30.9,23.6,06.5,0000.0,0004.78,0001.42,0000.83
2021-12-21 12:23:00,,0823.6,4.99,0.00,21.9,21.2,00.0,30.9,23.6,06.4,0000.0,0004.96,0001.39,0000.81
2021-12-21 12:24:00,,0823.6,4.99,0.00,21.9,21.2,00.0,30.9,23.5,06.4,0000.0,0004.79,0001.35,0000.80
2021-12-21 12:25:00,,0823.7,5.01,0.00,21.9,21.2,00.0,30.9,23.5,06.5,0000.0,0004.00,0001.29,0000.78
2021-12-21 12:26:00,,0823.7,4.99,0.00,21.8,21.2,00.0,30.9,23.5,06.5,0000.0,0003.81,0001.22,0000.76
2021-12-21 12:27:00,,0823.6,5.01,0.00,21.8,21.1,00.0,30.9,23.5,06.4,0000.0,0003.88,0001.19,0000.73
2021-12-21 12:28:00,,0823.5,4.99,0.00,21.8,21.1,00.0,30.9,23.5,06.3,0000.0,0003.86,0001.17,0000.72
2021-12-21 12:29:00,,0823.6,5.01,0.00,21.9,21.2,00.0,30.9,23.6,06.3,0000.0,0003.75,0001.12,0000.69
2021-12-21 12:30:00,,0823.7,4.99,0.00,21.9,21.4,00.0,30.9,23.7,06.4,0000.0,0003.63,0001.06,0000.67
2021-12-21 12:31:00,,0823.7,5.00,0.00,22.0,22.2,00.0,30.9,23.9,06.2,0000.0,0003.52,0001.02,0000.67
2021-12-21 12:32:00,,0823.7,5.00,0.00,22.2,23.1,00.0,31.0,24.2,06.1,0000.0,0003.40,0001.00,0000.65
2021-12-21 12:33:00,,0823.7,5.00,0.00,22.3,23.2,00.0,31.0,24.3,06.0,0000.0,0002.80,0000.90,0000.60
2021-12-21 12:34:00,,0823.7,5.00,0.00,22.3,22.9,00.0,31.1,24.2,06.0,0000.0,0002.37,0000.80,0000.57
2021-12-21 12:35:00,,0823.7,5.00,0.00,22.3,22.6,00.0,31.1,24.2,06.1,0000.0,0002.30,0000.76,0000.54
2021-12-21 12:36:00,,0823.7,5.00,0.00,22.3,22.4,00.0,31.1,24.1,06.1,0000.0,0002.21,0000.72,0000.51
2021-12-21 12:37:00,,0823.6,5.01,0.00,22.3,22.3,00.0,31.1,24.1,06.1,0000.0,0001.90,0000.68,0000.48
2021-12-21 12:38:00,,0823.6,5.00,0.00,22.3,22.1,00.0,31.1,24.1,06.1,0000.0,0002.13,0000.64,0000.44
2021-12-21 12:39:00,,0823.5,4.99,0.00,22.3,22.0,00.0,31.2,24.1,06.2,0000.0,0002.09,0000.61,0000.42
2021-12-21 12:40:00,,0823.6,5.00,0.00,22.3,21.9,00.0,31.2,24.0,06.1,0000.0,0002.08,0000.61,0000.41
2021-12-21 12:41:00,,0823.4,5.00,0.00,22.3,21.8,00.0,31.2,24.0,06.2,0000.0,0001.97,0000.57,0000.39
2021-12-21 12:42:00,,0823.5,5.01,0.00,22.3,21.8,00.0,31.2,24.0,06.4,0000.0,0002.12,0000.56,0000.37
2021-12-21 12:43:00,,0823.6,4.99,0.00,22.3,21.7,00.0,31.2,24.0,06.5,0000.0,0002.53,0000.57,0000.39
2021-12-21 12:44:00,,0823.6,4.99,0.00,22.3,21.7,00.0,31.2,24.0,06.6,0000.0,0002.65,0000.60,0000.42
2021-12-21 12:45:00,,0823.5,5.01,0.00,22.3,21.6,00.0,31.2,24.0,06.6,0000.0,0002.94,0000.68,0000.44
2021-12-21 12:46:00,,0823.4,4.99,0.00,22.3,21.6,00.0,31.2,24.0,06.6,0000.0,0002.99,0000.70,0000.46
2021-12-21 12:47:00,,0823.5,5.01,0.00,22.3,21.6,00.0,31.2,24.0,06.6,0000.0,0003.01,0000.71,0000.47
2021-12-21 12:48:00,,0823.4,4.99,0.00,22.3,21.6,00.0,31.2,24.0,06.6,0000.0,0002.62,0000.70,0000.48
2021-12-21 12:49:00,,0823.3,5.01,0.00,22.3,21.6,00.0,31.2,24.0,06.6,0000.0,0001.88,0000.69,0000.48
2021-12-21 12:50:00,,0823.3,4.99,0.00,22.2,21.5,00.0,31.2,23.9,06.6,0000.0,0001.88,0000.69,0000.48
2021-12-21 12:51:00,,0823.3,5.02,0.00,22.2,21.5,00.0,31.2,23.9,06.6,0000.0,0001.93,0000.70,0000.48
2021-12-21 12:52:00,,0823.4,4.99,0.00,22.2,21.5,00.0,31.2,23.9,06.6,0000.0,0002.76,0000.72,0000.47
2021-12-21 12:53:00,,0823.4,4.99,0.00,22.2,21.5,00.0,31.2,23.9,06.5,0000.0,0003.39,0000.70,0000.47
2021-12-21 12:54:00,,0823.4,5.01,0.00,22.2,21.5,00.0,31.2,23.9,06.6,0000.0,0002.84,0000.65,0000.44
2021-12-21 12:55:00,,0823.3,5.00,0.00,22.2,21.5,00.0,31.2,23.9,06.6,0000.0,0002.69,0000.58,0000.41
2021-12-21 12:56:00,,0823.3,5.00,0.00,22.2,21.5,00.0,31.2,23.9,06.6,0000.0,0002.34,0000.50,0000.38
2021-12-21 12:57:00,,0823.4,5.02,0.00,22.2,21.5,00.0,31.2,23.9,06.7,0000.0,0002.30,0000.48,0000.36
2021-12-21 12:58:00,,0823.3,4.99,0.00,22.2,21.5,00.0,31.2,23.8,06.7,0000.0,0002.34,0000.47,0000.34
2021-12-21 12:59:00,,0823.3,4.99,0.00,22.2,21.4,00.0,31.2,23.8,06.6,0000.0,0002.41,0000.46,0000.33
